Location: Ab? ar R?sh Ba?r?
(24.1861°N, 32.8847°E)
Time: 23:57:00
(UTC+00:00)

GPS 2-12 Rocket1 - Pass Details

Date: 24 October 2021
Orbit: 585 x 651 km, 20.0° (Epoch: 05 December)

Event Time Altitude Azimuth Distance (km) Brightness Sun altitude
Rises 15:54:35 0° 249° (WSW) 2,912 8.4 -9.8°
Reaches altitude 10° 15:57:01 10° 242° (WSW) 2,014 7.0 -10.4°
Maximum altitude 16:01:30 42° 172° (S) 909 3.9 -11.4°
Enters shadow 16:05:09 15° 105° (ESE) 1,726 4.8 -12.2°
